Weather History for CYBN - August, 2014

Change the Weather History Date:

Thursday, August 14, 2014

  Actual Average Record
Temperature  
Mean Temperature 56 °F -  
Max Temperature 61 °F 72 °F 84 °F (2002)
Min Temperature 50 °F 50 °F 42 °F (2001)
Degree Days  
Heating Degree Days 10    
Growing Degree Days 6 (Base 50)    
Moisture  
Dew Point 50 °F    
Average Humidity 86    
Maximum Humidity 100    
Minimum Humidity 55    
Precipitation  
Precipitation 0.02 in - - ()
Sea Level Pressure  
Sea Level Pressure 29.89 in    
Wind  
Wind Speed 7 mph ()    
Max Wind Speed 13 mph    
Max Gust Speed 22 mph    
Visibility 8.9 miles    
Events Rain    
Averages and records for this station are not official NWS values.
T = Trace of Precipitation, MM = Missing Value Source: Averaged Metar Reports

Daily Weather History Graph

Daily Weather History Graph

Search for Another Location

Airport or City:

Trip Planner

Search our weather history database for the weather conditions in past years. The results will help you decide how hot, cold, wet, or windy it might be!

Date:

Astronomy

Aug. 14, 2014 Rise Set
Actual Time 6:21 AM EDT 8:26 PM EDT
Civil Twilight 5:50 AM EDT 8:57 PM EDT
Nautical Twilight 5:11 AM EDT 9:36 PM EDT
Astronomical Twilight 4:28 AM EDT 10:18 PM EDT
Moon 10:35 PM EDT (8/14) 11:08 AM EDT (8/14)
Length of Visible Light 15h 07m
Length of Day
14h 04m
Waning Gibbous, 79% of the Moon is Illuminated
Aug 14
Waning Gibbous
Aug 17
Last Quarter
Aug 25
New
Sep 2
First Quarter
Sep 8
Full

Hourly Weather History & Observations

Time (EDT) Temp. Dew Point Humidity Pressure Visibility Wind Dir Wind Speed Gust Speed Precip Events Conditions
12:25 AM 55.4 °F 53.6 °F 94% 29.89 in 9.0 mi NNW 5.8 mph - N/A Rain Light Rain
1:05 AM 53.6 °F 53.6 °F 100% 29.89 in 9.0 mi NW 3.5 mph - N/A Rain Light Rain
1:11 AM 53.6 °F 53.6 °F 100% 29.89 in 9.0 mi NNW 3.5 mph - N/A   Overcast
1:21 AM 53.6 °F 53.6 °F 100% 29.89 in 9.0 mi WNW 4.6 mph - N/A Rain Light Rain
1:46 AM 53.6 °F 53.6 °F 100% 29.89 in 7.0 mi NW 2.3 mph - N/A Rain Light Rain
2:00 AM 54 °F 53 °F 95% 29.89 in 9 mi WNW 3.5 mph - - Rain Light Rain
2:00 AM 53.6 °F 53.6 °F 100% 29.89 in 9.0 mi WNW 3.5 mph - N/A Rain Light Rain
2:13 AM 53.6 °F 53.6 °F 100% 29.88 in 9.0 mi West 3.5 mph - N/A   Overcast
2:16 AM 53.6 °F 53.6 °F 100% 29.88 in 9.0 mi West 4.6 mph - N/A   Overcast
2:34 AM 53.6 °F 53.6 °F 100% 29.88 in 9.0 mi West 3.5 mph - N/A   Overcast
3:00 AM 53.6 °F 53.6 °F 100% 29.89 in 9.0 mi WNW 5.8 mph - N/A   Overcast
3:05 AM 53.6 °F 53.6 °F 100% 29.88 in 9.0 mi WNW 3.5 mph - N/A   Overcast
3:54 AM 53.6 °F 51.8 °F 94% 29.88 in 9.0 mi NNW 4.6 mph - N/A   Overcast
4:00 AM 53.6 °F 51.8 °F 94% 29.88 in 9.0 mi NNW 4.6 mph - N/A   Overcast
5:00 AM 51.8 °F 51.8 °F 100% 29.88 in 9.0 mi WNW 3.5 mph - N/A   Overcast
5:32 AM 51.8 °F 51.8 °F 100% 29.86 in 9.0 mi West 5.8 mph - N/A   Scattered Clouds
6:00 AM 50.0 °F 50.0 °F 100% 29.88 in 9.0 mi West 4.6 mph - N/A   Mostly Cloudy
7:00 AM 51.8 °F 50.0 °F 94% 29.88 in 9.0 mi West 8.1 mph - N/A   Overcast
8:00 AM 53 °F 50 °F 86% 29.88 in 9 mi West 9.2 mph - -  
8:00 AM 51.8 °F 50.0 °F 94% 29.88 in 9.0 mi West 10.4 mph - N/A   Mostly Cloudy
9:00 AM 53.6 °F 50.0 °F 88% 29.89 in 9.0 mi West 9.2 mph - N/A   Overcast
10:00 AM 57.2 °F 48.2 °F 72% 29.88 in 9.0 mi WNW 9.2 mph 20.7 mph N/A   Overcast
11:00 AM 59.0 °F 46.4 °F 63% 29.88 in 9.0 mi NW 12.7 mph 20.7 mph N/A   Mostly Cloudy
12:00 PM 59.0 °F 42.8 °F 55% 29.87 in 9.0 mi NW 12.7 mph 21.9 mph N/A   Mostly Cloudy
1:00 PM 57.2 °F 46.4 °F 67% 29.87 in 9.0 mi WNW 12.7 mph 19.6 mph N/A   Overcast
2:00 PM 58 °F 48 °F 59% 29.87 in 9 mi NW 9.2 mph - - Rain Light Rain
2:00 PM 57.2 °F 48.2 °F 72% 29.87 in 9.0 mi NNW 10.4 mph 17.3 mph N/A   Overcast
2:05 PM 57.2 °F 48.2 °F 72% 29.86 in 9.0 mi NW 11.5 mph 21.9 mph N/A Rain Light Rain
2:38 PM 53.6 °F 50.0 °F 88% 29.87 in 9.0 mi NW 12.7 mph 20.7 mph N/A   Overcast
2:49 PM 53.6 °F 50.0 °F 88% 29.87 in 9.0 mi NNW 12.7 mph 19.6 mph N/A   Overcast
2:57 PM 53.6 °F 51.8 °F 94% 29.88 in 9.0 mi NW 10.4 mph 17.3 mph N/A   Overcast
3:00 PM 53.6 °F 51.8 °F 94% 29.89 in 8.0 mi NW 11.5 mph 19.6 mph N/A   Overcast
3:18 PM 53.6 °F 51.8 °F 94% 29.88 in 9.0 mi NW 8.1 mph 18.4 mph N/A   Overcast
4:00 PM 55.4 °F 50.0 °F 82% 29.89 in 9.0 mi NW 10.4 mph - N/A   Overcast
5:00 PM 55.4 °F 48.2 °F 77% 29.90 in 9.0 mi WNW 12.7 mph 18.4 mph N/A   Overcast
5:17 PM 55.4 °F 48.2 °F 77% 29.89 in 9.0 mi WNW 6.9 mph 17.3 mph N/A   Overcast
5:22 PM 55.4 °F 46.4 °F 72% 29.89 in 9.0 mi WNW 12.7 mph - N/A   Overcast
6:00 PM 55.4 °F 48.2 °F 77% 29.90 in 9.0 mi WNW 11.5 mph 17.3 mph N/A   Overcast
6:05 PM 55.4 °F 48.2 °F 77% 29.89 in 9.0 mi WNW 12.7 mph - N/A   Overcast
6:39 PM 55.4 °F 48.2 °F 77% 29.89 in 9.0 mi WNW 11.5 mph - N/A   Overcast
6:51 PM 55.4 °F 48.2 °F 77% 29.89 in 9.0 mi WNW 10.4 mph - N/A   Mostly Cloudy
7:03 PM 53.6 °F 48.2 °F 82% 29.89 in 9.0 mi WNW 10.4 mph 21.9 mph N/A   Overcast
7:16 PM 53.6 °F 48.2 °F 82% 29.89 in 9.0 mi WNW 11.5 mph - N/A   Overcast
7:24 PM 53.6 °F 48.2 °F 82% 29.89 in 9.0 mi WNW 8.1 mph - N/A   Overcast
8:00 PM 53 °F 47 °F 75% 29.91 in 9 mi WNW 9.2 mph - -   Overcast
8:00 PM 53.6 °F 48.2 °F 82% 29.91 in 9.0 mi WNW 10.4 mph - N/A   Overcast
8:27 PM 53.6 °F 46.4 °F 77% 29.89 in 9.0 mi WNW 12.7 mph 18.4 mph N/A   Overcast
8:51 PM 53.6 °F 46.4 °F 77% 29.89 in 9.0 mi WNW 11.5 mph - N/A   Overcast
9:00 PM 53.6 °F 48.2 °F 82% 29.91 in 9.0 mi NW 8.1 mph - N/A   Overcast
10:00 PM 51.8 °F 48.2 °F 88% 29.91 in 9.0 mi WNW 8.1 mph - N/A   Overcast
10:02 PM 51.8 °F 48.2 °F 88% 29.90 in 9.0 mi WNW 9.2 mph - N/A   Overcast
10:55 PM 51.8 °F 48.2 °F 88% 29.89 in 9.0 mi West 8.1 mph - N/A   Overcast
11:00 PM 51.8 °F 50.0 °F 94% 29.91 in 9.0 mi WNW 9.2 mph - N/A   Overcast
11:12 PM 51.8 °F 50.0 °F 94% 29.90 in 5.0 mi WNW 6.9 mph 19.6 mph N/A Rain Light Rain